{"data":{"norad_id":43082,"intl_designator":"2017-085B","name":"YAOGAN-30 04B","alt_names":[],"object_type":"PAYLOAD","status":"ACTIVE","operator":null,"country":"PRC","launch_date":"2017-12-25","launch_site_code":"XICLF","launch_vehicle":null,"mission":null,"orbit_class":"UNKNOWN","rcs_meters":null,"size_class":null,"mass_kg":null,"dimensions":null,"purposes":[],"wikipedia_slug":null,"has_3d_model":false,"image_url":null,"decayed_at":null,"tle_current":{"epoch":"2026-05-25T02:52:54.389280Z","epoch_age_seconds":68186,"freshness":"FRESH","line1":"1 43082U 17085B   26145.12007395  .00002603  00000+0  19392-3 0  9990","line2":"2 43082  34.9952 290.7302 0004103 148.8305 211.2647 15.02562009459226","mean_motion":15.02562009,"eccentricity":0.0004103,"inclination_deg":34.9952,"raan_deg":290.7302,"arg_perigee_deg":148.8305,"mean_anomaly_deg":211.2647,"bstar":0.00019392,"rev_number":45922,"period_min":95.836311005784,"perigee_km":556.15317165428,"apogee_km":561.84578584874,"semimajor_km":6937.1364787515,"source":"CELESTRAK","updated_at":"2026-05-25T13:37:55.763609Z"}}}